Location: Katzenstein
(51.7484°N, 10.2155°E)
Time: 15:19:20
(UTC+00:00)

Cosmos 1943 - Pass Details

Date: 17 February 2020
Orbit: 832 x 851 km, 71.0° (Epoch: 28 March)

Event Time Altitude Azimuth Distance (km) Brightness Sun altitude
Rises 05:00:03 0° 197° (SSW) 3,366 6.2 -14.6°
Reaches altitude 10° 05:02:30 10° 195° (SSW) 2,438 5.5 -14.3°
Maximum altitude 05:08:00 64° 115° (ESE) 925 3.7 -13.4°
Drops below altitude 10° 05:13:35 10° 35° (NE) 2,464 6.1 -12.5°
Sets 05:16:03 0° 32° (NNE) 3,405 6.8 -12.2°
